Notices

What's New in latest Release from April 7th, 2021:

- Updated Glossary, including Speed of Maximum Gust, and Total Hourly Precipitation

- Updated national and regional climate services offices contacts and prices information

- Addition of station inventory lists for 1981-2010, 1971-2000, and 1961-1990 Normals.

If you haven't already, please take our survey and provide feedback about our website: https://eccc.sondage-survey.ca/f/LanguageSelection.aspx?s=442ca660-fcf1-47c0-95a9-59707d6fd709

Hourly Data Report for April 06, 2020

CLYDE RIVER A
NUNAVUT
Current Station Operator: NAVCAN

70°29'09.000" N
68°31'01.000" W
26.50 m
2400804
71090
YCY

Download Data

Hourly Data (April 2020)
Hourly Data Report for April 6, 2020
TIME
LST
Temp Definition
°C
Dew Point Definition
°C
Rel Hum Definition
%
Precip. Amount Definition
mm

Wind Dir Definition
10's deg

Wind Spd Definition
km/h
Visibility Definition
km
Stn Press Definition
kPa
Hmdx Definition


Wind Chill Definition


Weather Definition


00:00 -13.5 -17.9 70 0.0 32 39 16.1 102.35   -25 LegendNANA
01:00 -13.2 -17.4 71 0.0 32 43 16.1 102.29   -25 LegendNANA
02:00 -13.7 -18.4 68 0.0 32 37 16.1 102.26   -25 LegendNANA
03:00 -13.3 -18.0 68 0.0 31 41 16.1 102.22   -25 LegendNANA
04:00 -14.3 -18.7 70 0.0 31 37 16.1 102.13   -26 LegendNANA
05:00 -12.7 -17.9 66 0.0 33 41 16.1 102.08   -24 LegendNANA
06:00 -13.5 -17.0 75 0.0 32 50 8.1 102.08   -27 Haze
07:00 -13.0 -17.1 72 0.0 31 50 8.1 102.05   -26 Haze
08:00 -12.4 -16.1 74 0.0 32 50 8.1 102.02   -25 Haze
09:00 -11.6 -15.5 73 0.0 31 52 8.1 101.99   -24 Haze
10:00 -11.2 -15.3 72 0.0 32 48 16.1 101.91   -23 LegendNANA
11:00 -10.3 -14.8 70 0.0 32 55 12.9 101.76   -23 LegendNANA
12:00 -10.4 -13.5 78 0.0 32 65 2.4 101.71   -24 Snow
13:00 -10.5 -14.0 76 0.0 32 50 9.7 101.66   -22 Haze
14:00 -9.8 -13.6 74 0.0 31 59 4.0 101.61   -22 Snow
15:00 -9.9 -13.8 74 0.0 32 58 6.4 101.58   -22 Snow
16:00 -10.5 -13.7 78 0.0 32 59 2.4 101.52   -23 Snow,Blowing Snow
17:00 -10.7 -13.6 79 0.0 32 59 4.8 101.49   -24 Snow
18:00 -10.7 -13.9 77 0.0 32 54 4.8 101.50   -23 Snow
19:00 -11.1 -13.9 80 0.0 32 59 2.4 101.43   -24 Snow,Blowing Snow
20:00 -11.1 -14.7 75 0.0 32 50 9.7 101.46   -23 Snow
21:00 -10.8 -14.4 75 0.0 32 54 9.7 101.46   -23 Haze
22:00 -11.4 -15.3 73 0.0 32 43 16.1 101.45   -23 LegendNANA
23:00 -11.0 -15.6 69 0.0 31 41 16.1 101.40   -22 LegendNANA

Notes on Data Quality.

Legend

  • E = Estimated
  • M = Missing
  • NA = Not Available*
  • [empty] = Indicates an unobserved value
Date modified: